Terminal Aerodrome Forecast
Issued by NWS Upton, NY

Home | Current Version | Previous Version | Text Only | Print | Product List | Glossary On
Versions: 1 2 3 4 5 6 7 8 9 10 11 12 13 14 15 16 17 18 19 20 21 22 23 24 25 26 27 28 29 30
000
FTUS41 KOKX 260046 AAA
TAFBDR
TAF AMD
KBDR 260046Z 2601/2624 23009KT 6SM -SHRA BR BKN040 BKN100
     FM260300 26005KT P6SM FEW130 SCT250
     FM260600 VRB04KT P6SM SCT250
      TEMPO 2607/2611 3SM BR
     FM261200 29007KT P6SM SCT250
     FM261600 28010KT P6SM SCT050 SCT250=

USA.gov is the U.S. government's official web portal to all federal, state and local government web resources and services.